Location: Unspecified
(50.1700°N, 6.8600°E)
Time: 01:35:51
(UTC+00:00)

USA 116 - Pass Details

Date: 24 January 2019
Orbit: 405 x 834 km, 97.9° (Epoch: 18 November)

Event Time Altitude Azimuth Distance (km) Brightness Sun altitude
Rises 04:52:43 0° 174° (S) 3,088 7.7 -22.9°
Reaches altitude 10° 04:54:55 10° 177° (S) 2,224 6.9 -22.5°
Maximum altitude 04:59:51 64° 259° (W) 858 4.3 -21.8°
Enters shadow 05:03:46 18° 338° (NNW) 1,867 6.1 -21.1°
